Location: Hepcat Sky Observatory
(29.9800°N, 95.6500°W)
Time: 09:14:39
(UTC-06:00)

Cosmos 2366 rocket - Visible Passes

Search period start: 10 February 2016 00:00
Search period end: 20 February 2016 00:00
Orbit: 954 x 998 km, 82.9° (Epoch: 09 February)

Date Brightness Start Highest point End Pass type
(mag) Time Alt. Az. Time Alt. Az. Time Alt. Az.
10 Feb 6.3 03:33:37 18° E 03:33:37 18° E 03:37:22 10° ESE visible
10 Feb 4.1 05:18:29 51° W 05:18:50 51° W 05:24:55 10° SSW visible
10 Feb 6.7 18:38:46 10° WSW 18:42:23 16° WNW 18:46:00 10° NW visible
11 Feb 5.7 04:01:31 27° ESE 04:01:31 27° ESE 04:04:51 10° SE visible
11 Feb 5.2 05:46:21 22° WSW 05:46:21 22° WSW 05:49:18 10° SW visible
12 Feb 5.6 04:28:59 23° SSE 04:28:59 23° SSE 04:31:11 10° SSE visible
13 Feb 6.1 04:56:10 13° S 04:56:10 13° S 04:56:41 10° S visible
